User: anonymous   Login
Location: Newark
(39.4242°N, 80.8531°W)
Time: 03:55:09
(UTC+00:00)
Language:

POLYITAN 1 - Orbit

View from above orbital plane
View from above orbital plane
View from above satellite
View from above satellite

Ground track
Ground track

The orbit data is extracted from the following two-line orbital elements,

1 40042U 14033AJ  20092.76836846  .00000322  00000-0  40334-4 0  9997
2 40042  97.9219  17.5763 0014479 176.4628 183.6694 14.88841040314099
Epoch (UTC): 01 April 2020 18:26:27
Eccentricity: 0.0014479
inclination: 97.9219°
perigee height: 591 km
apogee height: 611 km
right ascension of ascending node: 17.5763°
argument of perigee: 176.4628°
revolutions per day: 14.88841040
mean anomaly at epoch: 183.6694°
orbit number at epoch: 31409

The dashed part of the orbit path shows where the satellite is in the earth's shadow,  

DLR